Flag for Myanmar Weather past 2 weeks in Yangon, Myanmar

Now
79 °F

Partly cloudy.


Feels Like: 83 °F
Forecast: 78 / 89 °F
Wind: 3 mph from Southeast

Location: Rangoon Airport

Current Time: Jul 23, 2014 at 8:27:22 PM

Latest Report: Jul 23, 2014 at 8:00 PM


Visibility: 4 mi

Pressure: 29.71 "Hg

Humidity: 94%

Dew point: 77 °F

Location of YangonLocation

Historic Weather in Yangon — Graph

°F

Yangon temperature yesterday

Maximum temperature yesterday: 86 °F (at 2:30 PM)
Minimum temperature yesterday: 75 °F (at 5:00 AM)
Average temperature yesterday: 79 °F

Past Weeks' High & Low Weather Summary

 TemperatureHumidityPressure
High88 °F (Jul 10, 12:00 PM)100% (Jul 8, 6:30 PM)29.80 "Hg (Jul 8, 6:30 PM)
Low73 °F (Jul 21, 5:30 AM)70% (Jul 10, 12:00 PM)29.56 "Hg (Jul 12, 4:00 PM)
Average80 °F91%29.70 "Hg
* Reported Jul 8 6:30 PM — Jul 23 7:00 PM, Yangon, Weather by CustomWeather, © 2014

Note: Actual official high and low records may vary slightly from our data, if they occured in-between our weather recording intervals... More about our weather records

Advertising

Yangon weather history for previous 24 hours

 ConditionsComfort  
Time TempWeatherWind HumidityBarometerVisibility
7:00 PM
Jul 23
81 °FPartly sunny.5 mph84%29.71 "Hg4 mi
6:00 PM81 °FPartly sunny.6 mph84%29.68 "Hg4 mi
5:30 PM81 °FPartly sunny.7 mph84%29.68 "Hg4 mi
4:30 PM79 °FPartly sunny.6 mph94%29.65 "Hg4 mi
4:00 PM84 °FPartly sunny.7 mph89%29.65 "Hg5 mi
3:00 PM86 °FMostly cloudy.6 mph84%29.68 "Hg5 mi
2:30 PM86 °FMostly cloudy.9 mph84%29.68 "Hg5 mi
12:30 PM81 °FMostly cloudy.5 mph94%29.74 "Hg4 mi
12:00 PM81 °FMostly cloudy.5 mph94%29.74 "Hg4 mi
11:00 AM81 °FMostly cloudy.3 mph84%29.77 "Hg4 mi
10:30 AM81 °FMostly cloudy.3 mph84%29.77 "Hg4 mi
10:00 AM82 °FMostly cloudy.3 mph84%29.77 "Hg4 mi
9:30 AM81 °FMostly cloudy.3 mph84%29.77 "Hg4 mi
9:00 AM81 °FMostly cloudy.2 mph84%29.77 "Hg4 mi
8:30 AM79 °FMostly cloudy.3 mph89%29.74 "Hg4 mi
8:00 AM79 °FMostly cloudy.3 mph89%29.74 "Hg4 mi
7:30 AM77 °FMostly cloudy.3 mph89%29.71 "Hg4 mi
7:00 AM77 °FMostly cloudy.2 mph100%29.71 "Hg4 mi
6:30 AM75 °FMostly cloudy.3 mph100%N/A4 mi
11:00 PM
Jul 22
79 °FPassing clouds.3 mph89%29.77 "Hg4 mi
10:30 PM79 °FPassing clouds.3 mph89%29.77 "Hg4 mi
10:00 PM79 °FPassing clouds.6 mph89%29.77 "Hg4 mi
9:30 PM79 °FPassing clouds.6 mph89%29.74 "Hg4 mi
9:00 PM79 °FPassing clouds.6 mph89%29.74 "Hg4 mi
8:00 PM79 °FPassing clouds.6 mph89%29.74 "Hg4 mi
Weather by CustomWeather, © 2014

See weather overviewHow to use our weather pages